Time,TemperatureF,DewpointF,PressureIn,WindDirection,WindDirectionDegrees,WindSpeedMPH,WindSpeedGustMPH,Humidity,HourlyPrecipIn,Conditions,Clouds,dailyrainin,SoftwareType,DateUTC
2013-09-19 00:03:00,73.1,70.0,30.00,South,184,2.0,4.0,90,0.00,,,0.00,WUHU216DAVISVP2,2013-09-19 05:03:00,
2013-09-19 00:08:00,73.2,70.1,30.00,SSE,153,0.0,4.0,90,0.00,,,0.00,WUHU216DAVISVP2,2013-09-19 05:08:00,
2013-09-19 00:13:00,73.1,70.0,30.00,SSE,149,1.0,4.0,90,0.00,,,0.00,WUHU216DAVISVP2,2013-09-19 05:13:00,
2013-09-19 00:18:00,73.1,70.0,30.00,SW,220,0.0,4.0,90,0.00,,,0.00,WUHU216DAVISVP2,2013-09-19 05:18:00,
2013-09-19 00:23:00,73.0,69.9,30.00,SE,146,0.0,3.0,90,0.00,,,0.00,WUHU216DAVISVP2,2013-09-19 05:23:00,
2013-09-19 00:28:00,73.0,70.2,30.00,South,170,1.0,4.0,91,0.00,,,0.00,WUHU216DAVISVP2,2013-09-19 05:28:00,
2013-09-19 00:33:00,72.9,70.1,30.00,SW,217,0.0,4.0,91,0.00,,,0.00,WUHU216DAVISVP2,2013-09-19 05:33:00,
2013-09-19 00:38:00,72.8,70.0,30.00,SW,226,1.0,3.0,91,0.00,,,0.00,WUHU216DAVISVP2,2013-09-19 05:38:00,
2013-09-19 00:43:00,72.7,69.9,30.00,SSW,198,1.0,4.0,91,0.00,,,0.00,WUHU216DAVISVP2,2013-09-19 05:43:00,
2013-09-19 00:48:00,72.7,69.9,30.00,SW,224,1.0,4.0,91,0.00,,,0.00,WUHU216DAVISVP2,2013-09-19 05:48:00,
2013-09-19 00:53:00,72.7,69.9,30.00,SSW,210,1.0,4.0,91,0.00,,,0.00,WUHU216DAVISVP2,2013-09-19 05:53:00,
2013-09-19 00:58:00,72.6,70.1,30.00,SW,221,0.0,4.0,92,0.00,,,0.00,WUHU216DAVISVP2,2013-09-19 05:58:00,
2013-09-19 01:03:00,72.5,70.0,30.00,SSW,200,1.0,3.0,92,0.00,,,0.00,WUHU216DAVISVP2,2013-09-19 06:03:00,
2013-09-19 01:08:00,72.5,70.0,30.00,SSW,211,0.0,2.0,92,0.00,,,0.00,WUHU216DAVISVP2,2013-09-19 06:08:00,
2013-09-19 01:13:00,72.4,69.9,30.00,SSW,203,1.0,3.0,92,0.00,,,0.00,WUHU216DAVISVP2,2013-09-19 06:13:00,
2013-09-19 01:18:00,72.3,69.8,30.00,SSW,201,1.0,3.0,92,0.00,,,0.00,WUHU216DAVISVP2,2013-09-19 06:18:00,
2013-09-19 01:23:00,72.2,69.7,30.00,SW,233,0.0,1.0,92,0.00,,,0.00,WUHU216DAVISVP2,2013-09-19 06:23:00,
2013-09-19 01:28:00,72.2,69.7,30.00,SSW,195,1.0,3.0,92,0.00,,,0.00,WUHU216DAVISVP2,2013-09-19 06:28:00,
2013-09-19 01:33:00,72.2,69.7,30.01,WSW,239,0.0,3.0,92,0.00,,,0.00,WUHU216DAVISVP2,2013-09-19 06:33:00,
2013-09-19 01:38:00,72.1,69.6,30.01,SSW,193,2.0,3.0,92,0.00,,,0.00,WUHU216DAVISVP2,2013-09-19 06:38:00,
2013-09-19 01:43:00,72.0,69.9,30.00,WSW,239,1.0,2.0,93,0.00,,,0.00,WUHU216DAVISVP2,2013-09-19 06:43:00,
2013-09-19 01:48:00,71.9,69.8,30.00,SSW,200,0.0,3.0,93,0.00,,,0.00,WUHU216DAVISVP2,2013-09-19 06:48:00,
2013-09-19 01:53:00,71.9,69.8,30.00,SSE,158,0.0,3.0,93,0.00,,,0.00,WUHU216DAVISVP2,2013-09-19 06:53:00,
2013-09-19 01:58:00,71.9,69.8,30.00,SSW,207,0.0,3.0,93,0.00,,,0.00,WUHU216DAVISVP2,2013-09-19 06:58:00,
2013-09-19 02:03:00,71.9,69.8,30.00,SW,214,2.0,4.0,93,0.00,,,0.00,WUHU216DAVISVP2,2013-09-19 07:03:00,
2013-09-19 02:08:00,71.9,69.7,30.00,South,188,0.0,4.0,93,0.00,,,0.00,WUHU216DAVISVP2,2013-09-19 07:08:00,
2013-09-19 02:13:00,71.9,69.7,30.00,SW,219,2.0,3.0,93,0.00,,,0.00,WUHU216DAVISVP2,2013-09-19 07:13:00,
2013-09-19 02:18:00,72.0,69.8,30.00,SSE,149,0.0,3.0,93,0.00,,,0.00,WUHU216DAVISVP2,2013-09-19 07:18:00,
2013-09-19 02:23:00,72.0,69.8,30.01,South,189,3.0,4.0,93,0.00,,,0.00,WUHU216DAVISVP2,2013-09-19 07:23:00,
2013-09-19 02:28:00,72.0,69.8,30.00,SSW,209,2.0,4.0,93,0.00,,,0.00,WUHU216DAVISVP2,2013-09-19 07:28:00,
2013-09-19 02:33:00,71.9,69.7,30.00,SW,221,2.0,4.0,93,0.00,,,0.00,WUHU216DAVISVP2,2013-09-19 07:33:00,
2013-09-19 02:38:00,71.9,69.7,30.00,SSW,208,2.0,4.0,93,0.00,,,0.00,WUHU216DAVISVP2,2013-09-19 07:38:00,
2013-09-19 02:43:00,71.9,69.7,30.00,SSW,213,3.0,3.0,93,0.00,,,0.00,WUHU216DAVISVP2,2013-09-19 07:43:00,
2013-09-19 02:48:00,71.9,69.7,30.00,SSE,166,3.0,3.0,93,0.00,,,0.00,WUHU216DAVISVP2,2013-09-19 07:48:00,
2013-09-19 02:53:00,71.9,69.7,30.00,SSW,200,1.0,6.0,93,0.00,,,0.00,WUHU216DAVISVP2,2013-09-19 07:53:00,
2013-09-19 02:58:00,71.9,69.7,30.00,SSW,200,2.0,6.0,93,0.00,,,0.00,WUHU216DAVISVP2,2013-09-19 07:58:00,
2013-09-19 03:03:00,71.9,69.7,30.00,SSW,206,2.0,4.0,93,0.00,,,0.00,WUHU216DAVISVP2,2013-09-19 08:03:00,
2013-09-19 03:08:00,71.9,69.7,30.00,SSW,210,2.0,4.0,93,0.00,,,0.00,WUHU216DAVISVP2,2013-09-19 08:08:00,
2013-09-19 03:14:00,71.8,69.6,30.00,SSW,208,0.0,3.0,93,0.00,,,0.00,WUHU216DAVISVP2,2013-09-19 08:14:00,
2013-09-19 03:19:00,71.8,69.9,30.00,SSW,199,1.0,3.0,94,0.00,,,0.00,WUHU216DAVISVP2,2013-09-19 08:19:00,
2013-09-19 03:24:00,71.7,69.8,30.00,SSW,208,1.0,3.0,94,0.00,,,0.00,WUHU216DAVISVP2,2013-09-19 08:24:00,
2013-09-19 03:29:00,71.7,69.8,30.00,SSW,203,1.0,2.0,94,0.00,,,0.00,WUHU216DAVISVP2,2013-09-19 08:29:00,
2013-09-19 03:34:00,71.6,69.8,30.00,SSW,204,1.0,2.0,94,0.00,,,0.00,WUHU216DAVISVP2,2013-09-19 08:34:00,
2013-09-19 03:39:00,71.6,69.8,30.00,SSW,202,0.0,2.0,94,0.00,,,0.00,WUHU216DAVISVP2,2013-09-19 08:39:00,
2013-09-19 03:44:00,71.6,69.8,30.00,SW,221,1.0,2.0,94,0.00,,,0.00,WUHU216DAVISVP2,2013-09-19 08:44:00,
2013-09-19 03:49:00,71.6,69.8,30.00,SSW,201,1.0,3.0,94,0.00,,,0.00,WUHU216DAVISVP2,2013-09-19 08:49:00,
2013-09-19 03:54:00,71.6,69.8,30.00,SSW,197,0.0,3.0,94,0.00,,,0.00,WUHU216DAVISVP2,2013-09-19 08:54:00,
2013-09-19 03:59:00,71.5,69.7,30.00,SSW,211,0.0,2.0,94,0.00,,,0.00,WUHU216DAVISVP2,2013-09-19 08:59:00,
2013-09-19 04:04:00,71.5,69.7,30.00,SW,224,1.0,2.0,94,0.00,,,0.00,WUHU216DAVISVP2,2013-09-19 09:04:00,
2013-09-19 04:09:00,71.6,69.8,30.00,SSW,198,1.0,2.0,94,0.00,,,0.00,WUHU216DAVISVP2,2013-09-19 09:09:00,
2013-09-19 04:14:00,71.6,69.8,30.00,SSW,207,2.0,3.0,94,0.00,,,0.00,WUHU216DAVISVP2,2013-09-19 09:14:00,
2013-09-19 04:19:00,71.6,69.4,30.00,SSW,213,0.0,3.0,93,0.00,,,0.00,WUHU216DAVISVP2,2013-09-19 09:19:00,
2013-09-19 04:24:00,71.6,69.4,30.00,SSW,198,2.0,2.0,93,0.00,,,0.00,WUHU216DAVISVP2,2013-09-19 09:24:00,
2013-09-19 04:29:00,71.7,69.5,30.00,South,177,1.0,3.0,93,0.00,,,0.00,WUHU216DAVISVP2,2013-09-19 09:29:00,
2013-09-19 04:34:00,71.7,69.5,30.00,South,188,1.0,3.0,93,0.00,,,0.00,WUHU216DAVISVP2,2013-09-19 09:34:00,
2013-09-19 04:39:00,71.6,69.4,30.00,South,186,0.0,3.0,93,0.00,,,0.00,WUHU216DAVISVP2,2013-09-19 09:39:00,
2013-09-19 04:44:00,71.6,69.4,30.00,SSE,155,1.0,2.0,93,0.00,,,0.00,WUHU216DAVISVP2,2013-09-19 09:44:00,
2013-09-19 04:49:00,71.6,69.4,30.00,SW,224,0.0,3.0,93,0.00,,,0.00,WUHU216DAVISVP2,2013-09-19 09:49:00,
2013-09-19 04:54:00,71.6,69.5,30.00,SSW,210,2.0,4.0,93,0.00,,,0.00,WUHU216DAVISVP2,2013-09-19 09:54:00,
2013-09-19 04:59:00,71.6,69.5,30.00,SSW,207,4.0,4.0,93,0.00,,,0.00,WUHU216DAVISVP2,2013-09-19 09:59:00,
2013-09-19 05:04:00,71.6,69.5,30.00,SSE,166,2.0,4.0,93,0.00,,,0.00,WUHU216DAVISVP2,2013-09-19 10:04:00,
2013-09-19 05:09:00,71.6,69.5,30.00,SSW,203,4.0,4.0,93,0.00,,,0.00,WUHU216DAVISVP2,2013-09-19 10:09:00,
2013-09-19 05:14:00,71.6,69.5,30.00,South,188,2.0,5.0,93,0.00,,,0.00,WUHU216DAVISVP2,2013-09-19 10:14:00,
2013-09-19 05:19:00,71.6,69.5,30.00,SSE,167,1.0,5.0,93,0.00,,,0.00,WUHU216DAVISVP2,2013-09-19 10:19:00,
2013-09-19 05:24:00,71.5,69.4,30.00,SSW,203,3.0,5.0,93,0.00,,,0.00,WUHU216DAVISVP2,2013-09-19 10:24:00,
2013-09-19 05:29:00,71.4,69.2,30.00,SSW,203,2.0,4.0,93,0.00,,,0.00,WUHU216DAVISVP2,2013-09-19 10:29:00,
2013-09-19 05:34:00,71.4,69.2,30.00,SW,235,2.0,4.0,93,0.00,,,0.00,WUHU216DAVISVP2,2013-09-19 10:34:00,
2013-09-19 05:39:00,71.4,69.2,30.00,SSW,199,3.0,4.0,93,0.00,,,0.00,WUHU216DAVISVP2,2013-09-19 10:39:00,
2013-09-19 05:44:00,71.3,69.1,30.00,SSE,153,2.0,4.0,93,0.00,,,0.00,WUHU216DAVISVP2,2013-09-19 10:44:00,
2013-09-19 05:49:00,71.3,69.1,30.00,South,181,2.0,5.0,93,0.00,,,0.00,WUHU216DAVISVP2,2013-09-19 10:49:00,
2013-09-19 05:54:00,71.3,69.1,30.00,SSW,207,3.0,6.0,93,0.00,,,0.00,WUHU216DAVISVP2,2013-09-19 10:54:00,
2013-09-19 05:59:00,71.3,69.1,30.00,SW,219,4.0,6.0,93,0.00,,,0.00,WUHU216DAVISVP2,2013-09-19 10:59:00,
2013-09-19 06:04:00,71.3,69.1,30.00,SSW,205,4.0,6.0,93,0.00,,,0.00,WUHU216DAVISVP2,2013-09-19 11:04:00,
2013-09-19 06:09:00,71.2,69.0,30.00,SSW,198,3.0,5.0,93,0.00,,,0.00,WUHU216DAVISVP2,2013-09-19 11:09:00,
2013-09-19 06:14:00,71.2,69.0,30.00,SSW,212,3.0,6.0,93,0.00,,,0.00,WUHU216DAVISVP2,2013-09-19 11:14:00,
2013-09-19 06:19:00,71.3,69.1,30.00,SSW,209,3.0,6.0,93,0.00,,,0.00,WUHU216DAVISVP2,2013-09-19 11:19:00,
2013-09-19 06:24:00,71.3,69.1,30.00,SSW,204,4.0,6.0,93,0.00,,,0.00,WUHU216DAVISVP2,2013-09-19 11:24:00,
2013-09-19 06:29:00,71.4,69.2,30.00,SSW,201,1.0,6.0,93,0.00,,,0.00,WUHU216DAVISVP2,2013-09-19 11:29:00,
2013-09-19 06:34:00,71.4,69.2,30.01,SSW,196,2.0,5.0,93,0.00,,,0.00,WUHU216DAVISVP2,2013-09-19 11:34:00,
2013-09-19 06:39:00,71.5,69.3,30.01,South,180,3.0,5.0,93,0.00,,,0.00,WUHU216DAVISVP2,2013-09-19 11:39:00,
2013-09-19 06:44:00,71.5,69.3,30.01,SSW,205,3.0,4.0,93,0.00,,,0.00,WUHU216DAVISVP2,2013-09-19 11:44:00,
2013-09-19 06:49:00,71.6,69.4,30.01,SSW,203,2.0,6.0,93,0.00,,,0.00,WUHU216DAVISVP2,2013-09-19 11:49:00,
2013-09-19 06:54:00,71.6,69.4,30.01,SSW,208,3.0,6.0,93,0.00,,,0.00,WUHU216DAVISVP2,2013-09-19 11:54:00,
2013-09-19 06:59:00,71.7,69.5,30.01,SW,220,2.0,5.0,93,0.00,,,0.00,WUHU216DAVISVP2,2013-09-19 11:59:00,
2013-09-19 07:04:00,71.8,69.6,30.01,SSW,207,2.0,6.0,93,0.00,,,0.00,WUHU216DAVISVP2,2013-09-19 12:04:00,
2013-09-19 07:09:00,71.9,69.4,30.01,South,191,4.0,7.0,92,0.00,,,0.00,WUHU216DAVISVP2,2013-09-19 12:09:00,
2013-09-19 07:14:00,72.1,69.6,30.01,SW,217,5.0,7.0,92,0.00,,,0.00,WUHU216DAVISVP2,2013-09-19 12:14:00,
2013-09-19 07:19:00,72.2,69.7,30.02,SSW,210,5.0,7.0,92,0.00,,,0.00,WUHU216DAVISVP2,2013-09-19 12:19:00,
2013-09-19 07:24:00,72.2,69.7,30.02,SSW,210,3.0,6.0,92,0.00,,,0.00,WUHU216DAVISVP2,2013-09-19 12:24:00,
2013-09-19 07:29:00,72.3,69.8,30.02,SSW,192,1.0,5.0,92,0.00,,,0.00,WUHU216DAVISVP2,2013-09-19 12:29:00,
2013-09-19 07:34:00,72.4,69.9,30.02,SSW,200,1.0,3.0,92,0.00,,,0.00,WUHU216DAVISVP2,2013-09-19 12:34:00,
2013-09-19 07:39:00,72.4,69.9,30.02,South,186,3.0,3.0,92,0.00,,,0.00,WUHU216DAVISVP2,2013-09-19 12:39:00,
2013-09-19 07:44:00,72.3,69.8,30.02,SSW,207,2.0,4.0,92,0.00,,,0.00,WUHU216DAVISVP2,2013-09-19 12:44:00,
2013-09-19 07:49:00,72.2,70.0,30.02,SSW,210,0.0,4.0,93,0.00,,,0.00,WUHU216DAVISVP2,2013-09-19 12:49:00,
2013-09-19 07:54:00,72.1,70.0,30.02,WSW,239,2.0,2.0,93,0.00,,,0.00,WUHU216DAVISVP2,2013-09-19 12:54:00,
2013-09-19 07:59:00,72.1,69.9,30.02,WSW,240,4.0,4.0,93,0.00,,,0.00,WUHU216DAVISVP2,2013-09-19 12:59:00,
2013-09-19 08:04:00,72.1,70.0,30.02,South,188,2.0,4.0,93,0.00,,,0.00,WUHU216DAVISVP2,2013-09-19 13:04:00,
2013-09-19 08:09:00,72.2,70.0,30.02,SW,214,3.0,5.0,93,0.00,,,0.00,WUHU216DAVISVP2,2013-09-19 13:09:00,
2013-09-19 08:14:00,72.3,70.1,30.02,South,176,0.0,5.0,93,0.00,,,0.00,WUHU216DAVISVP2,2013-09-19 13:14:00,
2013-09-19 08:19:00,72.4,70.2,30.02,SSW,210,1.0,3.0,93,0.00,,,0.00,WUHU216DAVISVP2,2013-09-19 13:19:00,
2013-09-19 08:24:00,72.5,70.4,30.02,SSW,207,0.0,2.0,93,0.00,,,0.00,WUHU216DAVISVP2,2013-09-19 13:24:00,
2013-09-19 08:29:00,72.6,70.5,30.02,SSW,192,2.0,4.0,93,0.00,,,0.00,WUHU216DAVISVP2,2013-09-19 13:29:00,
2013-09-19 08:34:00,72.7,70.6,30.02,SSW,198,4.0,4.0,93,0.00,,,0.00,WUHU216DAVISVP2,2013-09-19 13:34:00,
2013-09-19 08:39:00,72.7,70.2,30.02,SSW,198,1.0,4.0,92,0.00,,,0.00,WUHU216DAVISVP2,2013-09-19 13:39:00,
2013-09-19 08:44:00,72.8,70.3,30.02,SSW,201,1.0,6.0,92,0.00,,,0.00,WUHU216DAVISVP2,2013-09-19 13:44:00,
2013-09-19 08:49:00,72.9,70.4,30.02,SSW,209,1.0,6.0,92,0.00,,,0.00,WUHU216DAVISVP2,2013-09-19 13:49:00,
2013-09-19 08:54:00,72.9,70.4,30.02,SE,131,1.0,4.0,92,0.00,,,0.00,WUHU216DAVISVP2,2013-09-19 13:54:00,
2013-09-19 08:59:00,73.2,70.7,30.02,South,179,2.0,6.0,92,0.00,,,0.00,WUHU216DAVISVP2,2013-09-19 13:59:00,
2013-09-19 09:04:00,73.7,70.9,30.02,South,187,3.0,6.0,91,0.00,,,0.00,WUHU216DAVISVP2,2013-09-19 14:04:00,
2013-09-19 09:09:00,74.4,71.3,30.02,SW,229,4.0,7.0,90,0.00,,,0.00,WUHU216DAVISVP2,2013-09-19 14:09:00,
2013-09-19 09:14:00,75.1,71.6,30.02,SW,214,7.0,9.0,89,0.00,,,0.00,WUHU216DAVISVP2,2013-09-19 14:14:00,
2013-09-19 09:19:00,75.6,71.5,30.02,SSW,196,9.0,9.0,87,0.00,,,0.00,WUHU216DAVISVP2,2013-09-19 14:19:00,
2013-09-19 09:24:00,75.9,71.8,30.02,SSW,198,5.0,10.0,87,0.00,,,0.00,WUHU216DAVISVP2,2013-09-19 14:24:00,
2013-09-19 09:29:00,76.1,71.6,30.02,South,180,5.0,13.0,86,0.00,,,0.00,WUHU216DAVISVP2,2013-09-19 14:29:00,
2013-09-19 09:34:00,76.3,71.8,30.02,WSW,245,6.0,13.0,86,0.00,,,0.00,WUHU216DAVISVP2,2013-09-19 14:34:00,
2013-09-19 09:39:00,76.7,71.9,30.02,SSW,204,6.0,14.0,85,0.00,,,0.00,WUHU216DAVISVP2,2013-09-19 14:39:00,
2013-09-19 09:44:00,77.2,72.0,30.02,SSW,206,6.0,14.0,84,0.00,,,0.00,WUHU216DAVISVP2,2013-09-19 14:44:00,
2013-09-19 09:49:00,77.1,71.9,30.02,SSW,206,5.0,11.0,84,0.00,,,0.00,WUHU216DAVISVP2,2013-09-19 14:49:00,
2013-09-19 09:54:00,77.6,72.4,30.02,SSW,207,9.0,10.0,84,0.00,,,0.00,WUHU216DAVISVP2,2013-09-19 14:54:00,
2013-09-19 09:59:00,78.2,72.7,30.02,SSW,205,4.0,10.0,83,0.00,,,0.00,WUHU216DAVISVP2,2013-09-19 14:59:00,
2013-09-19 10:04:00,78.2,72.7,30.02,SSW,200,4.0,12.0,83,0.00,,,0.00,WUHU216DAVISVP2,2013-09-19 15:04:00,
2013-09-19 10:09:00,78.3,72.4,30.02,SSE,157,3.0,12.0,82,0.00,,,0.00,WUHU216DAVISVP2,2013-09-19 15:09:00,
2013-09-19 10:14:00,78.3,72.4,30.02,South,191,7.0,9.0,82,0.00,,,0.00,WUHU216DAVISVP2,2013-09-19 15:14:00,
2013-09-19 10:19:00,78.4,72.2,30.02,SW,223,6.0,13.0,81,0.00,,,0.00,WUHU216DAVISVP2,2013-09-19 15:19:00,
2013-09-19 10:24:00,78.8,72.8,30.02,SSW,203,5.0,13.0,82,0.00,,,0.00,WUHU216DAVISVP2,2013-09-19 15:24:00,
2013-09-19 10:29:00,79.0,72.7,30.02,SSW,200,9.0,11.0,81,0.00,,,0.00,WUHU216DAVISVP2,2013-09-19 15:29:00,
2013-09-19 10:34:00,79.4,72.4,30.02,SSW,207,12.0,13.0,79,0.00,,,0.00,WUHU216DAVISVP2,2013-09-19 15:34:00,
2013-09-19 10:39:00,79.8,72.8,30.02,South,182,8.0,13.0,79,0.00,,,0.00,WUHU216DAVISVP2,2013-09-19 15:39:00,
2013-09-19 10:44:00,80.4,73.1,30.02,South,191,6.0,13.0,78,0.00,,,0.00,WUHU216DAVISVP2,2013-09-19 15:44:00,
2013-09-19 10:49:00,80.8,73.1,30.01,SSW,193,7.0,14.0,77,0.00,,,0.00,WUHU216DAVISVP2,2013-09-19 15:49:00,
2013-09-19 10:54:00,81.2,73.1,30.01,SSW,196,7.0,14.0,76,0.00,,,0.00,WUHU216DAVISVP2,2013-09-19 15:54:00,
2013-09-19 10:59:00,81.6,72.7,30.01,SW,218,6.0,15.0,74,0.00,,,0.00,WUHU216DAVISVP2,2013-09-19 15:59:00,
2013-09-19 11:04:00,82.1,73.2,30.01,SSW,201,11.0,15.0,74,0.00,,,0.00,WUHU216DAVISVP2,2013-09-19 16:04:00,
2013-09-19 11:09:00,82.6,72.7,30.01,SW,214,14.0,15.0,72,0.00,,,0.00,WUHU216DAVISVP2,2013-09-19 16:09:00,
2013-09-19 11:14:00,83.0,73.4,30.01,SSW,208,11.0,15.0,73,0.00,,,0.00,WUHU216DAVISVP2,2013-09-19 16:14:00,
2013-09-19 11:19:00,83.7,73.1,30.01,SSW,205,9.0,17.0,70,0.00,,,0.00,WUHU216DAVISVP2,2013-09-19 16:19:00,
2013-09-19 11:24:00,84.0,73.0,30.01,SW,225,7.0,17.0,69,0.00,,,0.00,WUHU216DAVISVP2,2013-09-19 16:24:00,
2013-09-19 11:29:00,84.6,72.7,30.00,SSE,158,5.0,13.0,67,0.00,,,0.00,WUHU216DAVISVP2,2013-09-19 16:29:00,
2013-09-19 11:34:00,84.8,72.4,30.00,SSW,205,13.0,13.0,66,0.00,,,0.00,WUHU216DAVISVP2,2013-09-19 16:34:00,
2013-09-19 11:39:00,84.9,72.1,30.00,SSW,192,9.0,14.0,65,0.00,,,0.00,WUHU216DAVISVP2,2013-09-19 16:39:00,
2013-09-19 11:44:00,85.1,71.8,30.00,SSW,212,8.0,15.0,64,0.00,,,0.00,WUHU216DAVISVP2,2013-09-19 16:44:00,
2013-09-19 11:49:00,85.0,72.2,30.00,South,184,11.0,18.0,65,0.00,,,0.00,WUHU216DAVISVP2,2013-09-19 16:49:00,
2013-09-19 11:54:00,85.3,72.0,30.00,SW,214,6.0,18.0,64,0.00,,,0.00,WUHU216DAVISVP2,2013-09-19 16:54:00,
2013-09-19 11:59:00,85.6,72.3,30.00,SW,230,8.0,17.0,64,0.00,,,0.00,WUHU216DAVISVP2,2013-09-19 16:59:00,
2013-09-19 12:04:00,86.0,71.5,30.00,SW,219,9.0,17.0,62,0.00,,,0.00,WUHU216DAVISVP2,2013-09-19 17:04:00,
2013-09-19 12:09:00,86.3,71.3,30.00,SSW,200,8.0,16.0,61,0.00,,,0.00,WUHU216DAVISVP2,2013-09-19 17:09:00,
2013-09-19 12:14:00,86.1,71.4,29.99,SW,214,11.0,18.0,61,0.00,,,0.00,WUHU216DAVISVP2,2013-09-19 17:14:00,
2013-09-19 12:19:00,86.3,72.0,29.99,SSW,207,5.0,18.0,62,0.00,,,0.00,WUHU216DAVISVP2,2013-09-19 17:19:00,
2013-09-19 12:24:00,86.6,71.3,29.99,South,182,8.0,14.0,60,0.00,,,0.00,WUHU216DAVISVP2,2013-09-19 17:24:00,
2013-09-19 12:29:00,86.8,71.5,29.98,SSW,193,7.0,16.0,60,0.00,,,0.00,WUHU216DAVISVP2,2013-09-19 17:29:00,
2013-09-19 12:34:00,87.2,72.4,29.98,SSW,209,14.0,16.0,61,0.00,,,0.00,WUHU216DAVISVP2,2013-09-19 17:34:00,
2013-09-19 12:39:00,87.3,72.0,29.98,SW,222,7.0,14.0,60,0.00,,,0.00,WUHU216DAVISVP2,2013-09-19 17:39:00,
2013-09-19 12:44:00,87.3,71.5,29.98,SSW,207,9.0,14.0,59,0.00,,,0.00,WUHU216DAVISVP2,2013-09-19 17:44:00,
2013-09-19 12:49:00,87.7,71.9,29.98,South,169,8.0,15.0,59,0.00,,,0.00,WUHU216DAVISVP2,2013-09-19 17:49:00,
2013-09-19 12:54:00,87.6,71.3,29.97,SSW,196,8.0,16.0,58,0.00,,,0.00,WUHU216DAVISVP2,2013-09-19 17:54:00,
2013-09-19 12:59:00,87.9,72.1,29.97,SSW,201,6.0,16.0,59,0.00,,,0.00,WUHU216DAVISVP2,2013-09-19 17:59:00,
2013-09-19 13:04:00,88.4,72.5,29.97,SW,224,10.0,13.0,59,0.00,,,0.00,WUHU216DAVISVP2,2013-09-19 18:04:00,
2013-09-19 13:09:00,88.7,71.5,29.97,SSW,209,10.0,15.0,57,0.00,,,0.00,WUHU216DAVISVP2,2013-09-19 18:09:00,
2013-09-19 13:14:00,89.0,71.3,29.97,SW,220,15.0,15.0,56,0.00,,,0.00,WUHU216DAVISVP2,2013-09-19 18:14:00,
2013-09-19 13:19:00,89.0,72.1,29.96,South,190,9.0,15.0,57,0.00,,,0.00,WUHU216DAVISVP2,2013-09-19 18:19:00,
2013-09-19 13:24:00,89.5,72.0,29.96,South,170,9.0,13.0,56,0.00,,,0.00,WUHU216DAVISVP2,2013-09-19 18:24:00,
2013-09-19 13:29:00,89.0,72.1,29.97,SW,224,8.0,14.0,57,0.00,,,0.00,WUHU216DAVISVP2,2013-09-19 18:29:00,
2013-09-19 13:34:00,88.5,71.6,29.97,SW,222,10.0,14.0,57,0.00,,,0.00,WUHU216DAVISVP2,2013-09-19 18:34:00,
2013-09-19 13:39:00,87.9,72.1,29.96,SW,224,9.0,14.0,59,0.00,,,0.00,WUHU216DAVISVP2,2013-09-19 18:39:00,
2013-09-19 13:44:00,87.7,71.9,29.96,SSW,192,8.0,13.0,59,0.00,,,0.00,WUHU216DAVISVP2,2013-09-19 18:44:00,
2013-09-19 13:49:00,88.6,72.2,29.96,SSW,198,7.0,12.0,58,0.00,,,0.00,WUHU216DAVISVP2,2013-09-19 18:49:00,
2013-09-19 13:54:00,89.5,73.1,29.95,SW,223,6.0,11.0,58,0.00,,,0.00,WUHU216DAVISVP2,2013-09-19 18:54:00,
2013-09-19 13:59:00,89.7,72.2,29.95,SSW,213,12.0,13.0,56,0.00,,,0.00,WUHU216DAVISVP2,2013-09-19 18:59:00,
2013-09-19 14:04:00,89.7,72.7,29.95,SSW,208,6.0,13.0,57,0.00,,,0.00,WUHU216DAVISVP2,2013-09-19 19:04:00,
2013-09-19 14:09:00,89.7,71.4,29.95,SW,231,8.0,15.0,55,0.00,,,0.00,WUHU216DAVISVP2,2013-09-19 19:09:00,
2013-09-19 14:14:00,89.7,71.4,29.95,South,191,11.0,15.0,55,0.00,,,0.00,WUHU216DAVISVP2,2013-09-19 19:14:00,
2013-09-19 14:19:00,89.7,71.9,29.95,SSW,206,9.0,14.0,56,0.00,,,0.00,WUHU216DAVISVP2,2013-09-19 19:19:00,
2013-09-19 14:24:00,89.9,72.4,29.95,South,188,9.0,15.0,56,0.00,,,0.00,WUHU216DAVISVP2,2013-09-19 19:24:00,
2013-09-19 14:29:00,89.8,72.3,29.95,SW,227,7.0,15.0,56,0.00,,,0.00,WUHU216DAVISVP2,2013-09-19 19:29:00,
2013-09-19 14:34:00,89.9,72.4,29.95,South,171,5.0,18.0,56,0.00,,,0.00,WUHU216DAVISVP2,2013-09-19 19:34:00,
2013-09-19 14:39:00,89.9,71.8,29.94,South,187,7.0,18.0,55,0.00,,,0.00,WUHU216DAVISVP2,2013-09-19 19:39:00,
2013-09-19 14:44:00,90.0,71.9,29.94,SSW,203,6.0,16.0,55,0.00,,,0.00,WUHU216DAVISVP2,2013-09-19 19:44:00,
2013-09-19 14:49:00,89.9,71.8,29.94,South,176,9.0,13.0,55,0.00,,,0.00,WUHU216DAVISVP2,2013-09-19 19:49:00,
2013-09-19 14:54:00,89.7,72.2,29.94,SSW,195,9.0,13.0,56,0.00,,,0.00,WUHU216DAVISVP2,2013-09-19 19:54:00,
2013-09-19 14:59:00,89.9,72.6,29.94,SW,226,10.0,12.0,57,0.00,,,0.00,WUHU216DAVISVP2,2013-09-19 19:59:00,
2013-09-19 15:04:00,90.0,71.4,29.94,SW,217,15.0,16.0,54,0.00,,,0.00,WUHU216DAVISVP2,2013-09-19 20:04:00,
2013-09-19 15:09:00,90.4,70.6,29.94,SSW,196,7.0,16.0,52,0.00,,,0.00,WUHU216DAVISVP2,2013-09-19 20:09:00,
2013-09-19 15:14:00,90.4,70.6,29.93,SW,221,8.0,15.0,52,0.00,,,0.00,WUHU216DAVISVP2,2013-09-19 20:14:00,
2013-09-19 15:19:00,90.3,71.6,29.93,SW,214,7.0,15.0,54,0.00,,,0.00,WUHU216DAVISVP2,2013-09-19 20:19:00,
2013-09-19 15:25:00,90.0,71.4,29.93,SSW,207,5.0,15.0,54,0.00,,,0.00,WUHU216DAVISVP2,2013-09-19 20:25:00,
2013-09-19 15:30:00,90.0,71.4,29.93,SSE,163,5.0,13.0,54,0.00,,,0.00,WUHU216DAVISVP2,2013-09-19 20:30:00,
2013-09-19 15:35:00,90.2,72.1,29.93,SSW,211,10.0,12.0,55,0.00,,,0.00,WUHU216DAVISVP2,2013-09-19 20:35:00,
2013-09-19 15:40:00,90.1,72.0,29.93,SSW,202,8.0,14.0,55,0.00,,,0.00,WUHU216DAVISVP2,2013-09-19 20:40:00,
2013-09-19 15:45:00,90.0,71.9,29.93,South,191,9.0,14.0,55,0.00,,,0.00,WUHU216DAVISVP2,2013-09-19 20:45:00,
2013-09-19 15:49:00,90.0,71.9,29.93,SSW,210,8.0,13.0,55,0.00,,,0.00,WUHU216DAVISVP2,2013-09-19 20:49:00,
2013-09-19 15:54:00,89.9,72.4,29.92,SSW,202,8.0,13.0,56,0.00,,,0.00,WUHU216DAVISVP2,2013-09-19 20:54:00,
2013-09-19 15:59:00,89.4,73.0,29.92,SSE,154,2.0,11.0,58,0.00,,,0.00,WUHU216DAVISVP2,2013-09-19 20:59:00,
2013-09-19 16:04:00,89.5,73.1,29.92,SSW,203,4.0,9.0,58,0.00,,,0.00,WUHU216DAVISVP2,2013-09-19 21:04:00,
2013-09-19 16:09:00,90.1,72.6,29.92,SSW,198,7.0,9.0,56,0.00,,,0.00,WUHU216DAVISVP2,2013-09-19 21:09:00,
2013-09-19 16:14:00,90.5,72.1,29.92,SSW,203,6.0,13.0,55,0.00,,,0.00,WUHU216DAVISVP2,2013-09-19 21:14:00,
2013-09-19 16:19:00,90.2,72.4,29.92,SSW,202,4.0,13.0,56,0.00,,,0.00,WUHU216DAVISVP2,2013-09-19 21:19:00,
2013-09-19 16:24:00,90.2,72.6,29.91,SW,217,4.0,13.0,56,0.00,,,0.00,WUHU216DAVISVP2,2013-09-19 21:24:00,
2013-09-19 16:29:00,90.4,73.9,29.91,SW,233,3.0,13.0,58,0.00,,,0.00,WUHU216DAVISVP2,2013-09-19 21:29:00,
2013-09-19 16:34:00,90.4,73.9,29.91,SW,219,6.0,9.0,58,0.00,,,0.00,WUHU216DAVISVP2,2013-09-19 21:34:00,
2013-09-19 16:39:00,90.5,74.0,29.91,SSW,204,4.0,8.0,58,0.00,,,0.00,WUHU216DAVISVP2,2013-09-19 21:39:00,
2013-09-19 16:44:00,90.4,73.4,29.91,South,184,6.0,12.0,57,0.00,,,0.00,WUHU216DAVISVP2,2013-09-19 21:44:00,
2013-09-19 16:49:00,89.9,71.8,29.91,SSW,200,7.0,12.0,55,0.00,,,0.00,WUHU216DAVISVP2,2013-09-19 21:49:00,
2013-09-19 16:54:00,89.5,71.5,29.90,SSW,209,8.0,14.0,55,0.00,,,0.00,WUHU216DAVISVP2,2013-09-19 21:54:00,
2013-09-19 16:59:00,89.1,72.2,29.90,SSW,210,6.0,14.0,57,0.00,,,0.00,WUHU216DAVISVP2,2013-09-19 21:59:00,
2013-09-19 17:04:00,89.1,71.6,29.90,SSW,212,6.0,12.0,56,0.00,,,0.00,WUHU216DAVISVP2,2013-09-19 22:04:00,
2013-09-19 17:09:00,89.1,71.1,29.90,SSW,205,8.0,12.0,55,0.00,,,0.00,WUHU216DAVISVP2,2013-09-19 22:09:00,
2013-09-19 17:14:00,88.7,71.5,29.90,SSW,195,7.0,14.0,57,0.00,,,0.00,WUHU216DAVISVP2,2013-09-19 22:14:00,
2013-09-19 17:19:00,88.1,71.5,29.89,SSW,211,7.0,14.0,58,0.00,,,0.00,WUHU216DAVISVP2,2013-09-19 22:19:00,
2013-09-19 17:24:00,87.7,71.9,29.89,SSW,207,5.0,11.0,59,0.00,,,0.00,WUHU216DAVISVP2,2013-09-19 22:24:00,
2013-09-19 17:29:00,87.7,72.4,29.89,South,176,6.0,12.0,60,0.00,,,0.00,WUHU216DAVISVP2,2013-09-19 22:29:00,
2013-09-19 17:34:00,87.6,72.3,29.89,SW,231,10.0,12.0,60,0.00,,,0.00,WUHU216DAVISVP2,2013-09-19 22:34:00,
2013-09-19 17:39:00,87.5,72.7,29.89,South,179,6.0,12.0,61,0.00,,,0.00,WUHU216DAVISVP2,2013-09-19 22:39:00,
2013-09-19 17:44:00,87.3,73.0,29.89,SSW,197,7.0,12.0,62,0.00,,,0.00,WUHU216DAVISVP2,2013-09-19 22:44:00,
2013-09-19 17:49:00,87.1,73.3,29.89,SSW,209,9.0,12.0,63,0.00,,,0.00,WUHU216DAVISVP2,2013-09-19 22:49:00,
2013-09-19 17:54:00,86.9,73.5,29.88,SSW,200,5.0,11.0,64,0.00,,,0.00,WUHU216DAVISVP2,2013-09-19 22:54:00,
2013-09-19 17:59:00,86.6,73.0,29.88,SSW,204,6.0,12.0,64,0.00,,,0.00,WUHU216DAVISVP2,2013-09-19 22:59:00,
2013-09-19 18:04:00,86.3,73.4,29.88,SSE,168,5.0,12.0,65,0.00,,,0.00,WUHU216DAVISVP2,2013-09-19 23:04:00,
2013-09-19 18:09:00,85.9,73.5,29.88,SSE,157,5.0,10.0,66,0.00,,,0.00,WUHU216DAVISVP2,2013-09-19 23:09:00,
2013-09-19 18:14:00,85.5,73.6,29.88,SSE,158,7.0,10.0,67,0.00,,,0.00,WUHU216DAVISVP2,2013-09-19 23:14:00,
2013-09-19 18:19:00,85.1,73.3,29.88,South,182,8.0,10.0,68,0.00,,,0.00,WUHU216DAVISVP2,2013-09-19 23:19:00,
2013-09-19 18:24:00,84.8,73.8,29.88,South,180,5.0,15.0,69,0.00,,,0.00,WUHU216DAVISVP2,2013-09-19 23:24:00,
2013-09-19 18:29:00,84.5,73.5,29.88,SSE,162,3.0,15.0,69,0.00,,,0.00,WUHU216DAVISVP2,2013-09-19 23:29:00,
2013-09-19 18:34:00,84.3,73.0,29.88,WSW,242,4.0,9.0,69,0.00,,,0.00,WUHU216DAVISVP2,2013-09-19 23:34:00,
2013-09-19 18:39:00,84.0,73.4,29.88,South,169,2.0,9.0,70,0.00,,,0.00,WUHU216DAVISVP2,2013-09-19 23:39:00,
2013-09-19 18:44:00,83.8,73.2,29.88,South,175,6.0,15.0,70,0.00,,,0.00,WUHU216DAVISVP2,2013-09-19 23:44:00,
2013-09-19 18:49:00,83.5,72.9,29.88,South,176,6.0,15.0,70,0.00,,,0.00,WUHU216DAVISVP2,2013-09-19 23:49:00,
2013-09-19 18:54:00,83.2,73.0,29.88,SSW,203,6.0,11.0,71,0.00,,,0.00,WUHU216DAVISVP2,2013-09-19 23:54:00,
2013-09-19 18:59:00,83.0,73.3,29.88,SSW,202,6.0,10.0,72,0.00,,,0.00,WUHU216DAVISVP2,2013-09-19 23:59:00,
2013-09-19 19:04:00,82.8,72.8,29.88,South,175,5.0,10.0,72,0.00,,,0.00,WUHU216DAVISVP2,2013-09-20 00:04:00,
2013-09-19 19:09:00,82.6,72.7,29.88,SSW,193,4.0,10.0,72,0.00,,,0.00,WUHU216DAVISVP2,2013-09-20 00:09:00,
2013-09-19 19:14:00,82.4,73.1,29.88,SSE,168,5.0,9.0,73,0.00,,,0.00,WUHU216DAVISVP2,2013-09-20 00:14:00,
2013-09-19 19:19:00,82.1,72.8,29.88,SSW,200,4.0,8.0,73,0.00,,,0.00,WUHU216DAVISVP2,2013-09-20 00:19:00,
2013-09-19 19:24:00,81.9,73.0,29.89,SSW,203,5.0,8.0,74,0.00,,,0.00,WUHU216DAVISVP2,2013-09-20 00:24:00,
2013-09-19 19:29:00,81.8,72.9,29.89,South,179,3.0,12.0,74,0.00,,,0.00,WUHU216DAVISVP2,2013-09-20 00:29:00,
2013-09-19 19:34:00,81.7,72.6,29.89,South,175,5.0,12.0,74,0.00,,,0.00,WUHU216DAVISVP2,2013-09-20 00:34:00,
2013-09-19 19:39:00,81.6,73.1,29.90,South,191,4.0,8.0,75,0.00,,,0.00,WUHU216DAVISVP2,2013-09-20 00:39:00,
2013-09-19 19:44:00,81.4,72.9,29.90,SSW,202,1.0,8.0,75,0.00,,,0.00,WUHU216DAVISVP2,2013-09-20 00:44:00,
2013-09-19 19:49:00,81.2,72.7,29.90,South,186,2.0,7.0,75,0.00,,,0.00,WUHU216DAVISVP2,2013-09-20 00:49:00,
2013-09-19 19:54:00,81.0,72.7,29.90,SSE,165,1.0,7.0,76,0.00,,,0.00,WUHU216DAVISVP2,2013-09-20 00:54:00,
2013-09-19 19:59:00,80.7,72.6,29.90,SSW,204,0.0,4.0,76,0.00,,,0.00,WUHU216DAVISVP2,2013-09-20 00:59:00,
2013-09-19 20:05:00,80.3,72.6,29.90,SSW,195,0.0,4.0,77,0.00,,,0.00,WUHU216DAVISVP2,2013-09-20 01:05:00,
2013-09-19 20:10:00,80.1,72.8,29.90,SW,226,1.0,4.0,78,0.00,,,0.00,WUHU216DAVISVP2,2013-09-20 01:10:00,
2013-09-19 20:15:00,80.0,72.7,29.91,South,184,0.0,4.0,78,0.00,,,0.00,WUHU216DAVISVP2,2013-09-20 01:15:00,
2013-09-19 20:20:00,79.8,72.5,29.91,South,177,0.0,3.0,78,0.00,,,0.00,WUHU216DAVISVP2,2013-09-20 01:20:00,
2013-09-19 20:25:00,79.7,72.7,29.91,SSE,157,2.0,5.0,79,0.00,,,0.00,WUHU216DAVISVP2,2013-09-20 01:25:00,
2013-09-19 20:30:00,79.6,72.5,29.91,South,179,2.0,5.0,79,0.00,,,0.00,WUHU216DAVISVP2,2013-09-20 01:30:00,
2013-09-19 20:35:00,79.5,72.4,29.91,SW,230,2.0,4.0,79,0.00,,,0.00,WUHU216DAVISVP2,2013-09-20 01:35:00,
2013-09-19 20:40:00,79.3,72.7,29.91,SSW,200,3.0,5.0,80,0.00,,,0.00,WUHU216DAVISVP2,2013-09-20 01:40:00,
2013-09-19 20:45:00,79.2,72.6,29.92,SW,214,3.0,5.0,80,0.00,,,0.00,WUHU216DAVISVP2,2013-09-20 01:45:00,
2013-09-19 20:50:00,79.2,72.6,29.92,SSW,192,1.0,4.0,80,0.00,,,0.00,WUHU216DAVISVP2,2013-09-20 01:50:00,
2013-09-19 20:55:00,79.0,72.4,29.92,South,176,3.0,4.0,80,0.00,,,0.00,WUHU216DAVISVP2,2013-09-20 01:55:00,
2013-09-19 21:00:00,78.8,72.6,29.92,SSE,167,1.0,4.0,81,0.00,,,0.00,WUHU216DAVISVP2,2013-09-20 02:00:00,
2013-09-19 21:05:00,78.7,72.5,29.92,South,183,2.0,4.0,81,0.00,,,0.00,WUHU216DAVISVP2,2013-09-20 02:05:00,
2013-09-19 21:10:00,78.5,72.2,29.92,SSW,209,3.0,4.0,81,0.00,,,0.00,WUHU216DAVISVP2,2013-09-20 02:10:00,
2013-09-19 21:15:00,78.3,72.3,29.92,South,187,1.0,4.0,82,0.00,,,0.00,WUHU216DAVISVP2,2013-09-20 02:15:00,
2013-09-19 21:20:00,78.2,72.3,29.92,SW,218,3.0,4.0,82,0.00,,,0.00,WUHU216DAVISVP2,2013-09-20 02:20:00,
2013-09-19 21:25:00,78.1,72.2,29.92,SSW,193,2.0,4.0,82,0.00,,,0.00,WUHU216DAVISVP2,2013-09-20 02:25:00,
2013-09-19 21:30:00,78.0,72.1,29.92,SSW,203,4.0,5.0,82,0.00,,,0.00,WUHU216DAVISVP2,2013-09-20 02:30:00,
2013-09-19 21:35:00,78.0,72.1,29.92,South,169,3.0,5.0,82,0.00,,,0.00,WUHU216DAVISVP2,2013-09-20 02:35:00,
2013-09-19 21:40:00,78.0,71.8,29.92,SSE,165,3.0,7.0,81,0.00,,,0.00,WUHU216DAVISVP2,2013-09-20 02:40:00,
2013-09-19 21:45:00,78.0,71.7,29.92,SSW,210,5.0,7.0,81,0.00,,,0.00,WUHU216DAVISVP2,2013-09-20 02:45:00,
2013-09-19 21:50:00,78.1,71.9,29.92,SSW,199,3.0,8.0,81,0.00,,,0.00,WUHU216DAVISVP2,2013-09-20 02:50:00,
2013-09-19 21:55:00,78.0,71.8,29.92,SSW,202,5.0,8.0,81,0.00,,,0.00,WUHU216DAVISVP2,2013-09-20 02:55:00,
2013-09-19 22:00:00,78.0,71.8,29.92,South,189,4.0,7.0,81,0.00,,,0.00,WUHU216DAVISVP2,2013-09-20 03:00:00,
2013-09-19 22:05:00,78.0,71.8,29.92,SSW,202,5.0,7.0,81,0.00,,,0.00,WUHU216DAVISVP2,2013-09-20 03:05:00,
2013-09-19 22:10:00,78.0,71.7,29.92,South,188,4.0,7.0,81,0.00,,,0.00,WUHU216DAVISVP2,2013-09-20 03:10:00,
2013-09-19 22:15:00,78.0,71.7,29.93,SSW,197,2.0,6.0,81,0.00,,,0.00,WUHU216DAVISVP2,2013-09-20 03:15:00,
2013-09-19 22:20:00,77.9,71.7,29.93,South,182,3.0,7.0,81,0.00,,,0.00,WUHU216DAVISVP2,2013-09-20 03:20:00,
2013-09-19 22:25:00,77.8,71.6,29.93,SSW,195,6.0,9.0,81,0.00,,,0.00,WUHU216DAVISVP2,2013-09-20 03:25:00,
2013-09-19 22:30:00,77.7,71.5,29.93,South,188,4.0,9.0,81,0.00,,,0.00,WUHU216DAVISVP2,2013-09-20 03:30:00,
2013-09-19 22:35:00,77.5,71.3,29.93,SSW,205,7.0,7.0,81,0.00,,,0.00,WUHU216DAVISVP2,2013-09-20 03:35:00,
2013-09-19 22:40:00,77.4,71.1,29.93,SSE,167,2.0,8.0,81,0.00,,,0.00,WUHU216DAVISVP2,2013-09-20 03:40:00,
2013-09-19 22:45:00,77.3,71.4,29.93,SSW,207,2.0,8.0,82,0.00,,,0.00,WUHU216DAVISVP2,2013-09-20 03:45:00,
2013-09-19 22:50:00,77.2,71.4,29.93,SSW,207,2.0,8.0,82,0.00,,,0.00,WUHU216DAVISVP2,2013-09-20 03:50:00,
2013-09-19 22:55:00,77.0,71.2,29.93,South,186,2.0,7.0,82,0.00,,,0.00,WUHU216DAVISVP2,2013-09-20 03:55:00,
2013-09-19 23:00:00,77.0,71.2,29.93,SSE,165,3.0,6.0,82,0.00,,,0.00,WUHU216DAVISVP2,2013-09-20 04:00:00,
2013-09-19 23:01:00,77.0,71.2,29.93,SSW,200,4.0,6.0,82,0.00,,,0.00,WUHU216DAVISVP2,2013-09-20 04:01:00,
2013-09-19 23:06:00,77.0,71.2,29.93,SSW,203,5.0,6.0,82,0.00,,,0.00,WUHU216DAVISVP2,2013-09-20 04:06:00,
2013-09-19 23:11:00,77.0,71.2,29.93,SSW,193,1.0,6.0,82,0.00,,,0.00,WUHU216DAVISVP2,2013-09-20 04:11:00,
2013-09-19 23:16:00,76.8,71.0,29.93,SSW,205,3.0,6.0,82,0.00,,,0.00,WUHU216DAVISVP2,2013-09-20 04:16:00,
2013-09-19 23:21:00,76.8,71.3,29.93,South,191,2.0,6.0,83,0.00,,,0.00,WUHU216DAVISVP2,2013-09-20 04:21:00,
2013-09-19 23:26:00,76.6,71.1,29.93,SSW,211,1.0,6.0,83,0.00,,,0.00,WUHU216DAVISVP2,2013-09-20 04:26:00,
2013-09-19 23:31:00,76.4,70.9,29.92,SW,224,0.0,5.0,83,0.00,,,0.00,WUHU216DAVISVP2,2013-09-20 04:31:00,
2013-09-19 23:36:00,76.3,71.2,29.92,SSE,166,1.0,4.0,84,0.00,,,0.00,WUHU216DAVISVP2,2013-09-20 04:36:00,
2013-09-19 23:41:00,76.0,70.9,29.93,SSW,201,0.0,4.0,84,0.00,,,0.00,WUHU216DAVISVP2,2013-09-20 04:41:00,
2013-09-19 23:46:00,75.7,70.9,29.92,SSE,147,0.0,3.0,85,0.00,,,0.00,WUHU216DAVISVP2,2013-09-20 04:46:00,
2013-09-19 23:51:00,75.5,70.7,29.93,SSW,195,2.0,3.0,85,0.00,,,0.00,WUHU216DAVISVP2,2013-09-20 04:51:00,
2013-09-19 23:56:00,75.4,70.9,29.92,SSW,200,1.0,2.0,86,0.00,,,0.00,WUHU216DAVISVP2,2013-09-20 04:56:00,